Location: Wapato
(46.4478°N, 120.4212°W)
Time: 22:33:24
(UTC+00:00)

Vanguard 1 Rocket - Pass Details

Date: 21 May 2026
Orbit: 656 x 4211 km, 34.3° (Epoch: 2 June)

Event Time Altitude Azimuth Distance (km) Brightness Sun altitude
Rises 21:52:07 0° 230° (SW) 3,535 11.0 55.1°
Reaches altitude 10° 21:54:28 10° 219° (SW) 2,845 10.7 54.8°
Maximum altitude 22:00:36 33° 157° (SSE) 2,258 10.0 53.9°
Drops below altitude 10° 22:11:05 10° 100° (E) 4,921 11.0 52.4°
Sets 22:16:39 0° 93° (E) 6,567 11.5 51.6°
